QPF
0.12 0.11 0.12 0.13 0.12 0.10 0.09 0.09 0.10 0.09 0.11 0.09 0.06 0.06 0.06 0.06 0.06 0.06 0.06 0.06 0.05 0.03 0.03 0.03 0.02 0.02 0.02 0.02 0.01 0.01 0.01 0.01 0.02 0.02 0.02 0.02 0.01 0.00 0.00 0.00 0.00 0.00 0.00
0.09 0.10 0.10 0.12 0.12 0.10 0.09 0.10 0.10 0.09 0.10 0.10 0.08 0.07 0.07 0.08 0.10 0.08 0.07 0.06 0.06 0.04 0.04 0.03 0.02 0.03 0.03 0.02 0.02 0.02 0.02 0.02 0.02 0.01 0.01 0.01 0.01 0.01 0.01 0.01 0.01 0.01 0.00
0.07 0.08 0.09 0.10 0.10 0.09 0.11 0.12 0.12 0.11 0.11 0.11 0.10 0.09 0.10 0.11 0.10 0.09 0.08 0.06 0.05 0.04 0.04 0.04 0.03 0.04 0.04 0.04 0.03 0.03 0.03 0.02 0.02 0.02 0.01 0.01 0.01 0.01 0.02 0.02 0.01 0.01 0.01
0.06 0.08 0.07 0.08 0.09 0.09 0.11 0.12 0.13 0.13 0.13 0.13 0.13 0.14 0.13 0.12 0.12 0.09 0.07 0.06 0.05 0.04 0.04 0.04 0.04 0.04 0.05 0.05 0.05 0.05 0.04 0.04 0.04 0.03 0.02 0.02 0.02 0.02 0.03 0.03 0.02 0.02 0.01
0.09 0.08 0.07 0.09 0.11 0.12 0.13 0.12 0.13 0.13 0.13 0.14 0.14 0.15 0.14 0.14 0.12 0.12 0.10 0.09 0.07 0.06 0.06 0.06 0.05 0.05 0.05 0.05 0.04 0.04 0.04 0.04 0.04 0.04 0.04 0.03 0.03 0.04 0.04 0.03 0.02 0.02 0.01
0.13 0.12 0.11 0.10 0.11 0.12 0.13 0.13 0.14 0.12 0.11 0.12 0.11 0.11 0.12 0.11 0.12 0.11 0.10 0.11 0.11 0.09 0.09 0.08 0.07 0.05 0.04 0.04 0.03 0.03 0.03 0.04 0.04 0.05 0.04 0.04 0.05 0.05 0.05 0.04 0.03 0.03 0.02
0.10 0.10 0.10 0.11 0.12 0.11 0.11 0.11 0.11 0.11 0.12 0.12 0.11 0.09 0.10 0.12 0.12 0.09 0.07 0.08 0.09 0.09 0.09 0.09 0.07 0.06 0.06 0.05 0.05 0.05 0.04 0.05 0.05 0.06 0.06 0.05 0.05 0.05 0.06 0.05 0.05 0.05 0.03
0.10 0.10 0.11 0.11 0.11 0.13 0.13 0.12 0.12 0.12 0.12 0.11 0.11 0.11 0.12 0.11 0.08 0.05 0.04 0.04 0.05 0.06 0.07 0.08 0.09 0.09 0.08 0.09 0.09 0.09 0.09 0.09 0.09 0.08 0.07 0.06 0.06 0.06 0.06 0.05 0.04 0.04 0.03
0.11 0.14 0.14 0.13 0.12 0.11 0.10 0.11 0.11 0.10 0.09 0.09 0.10 0.11 0.12 0.12 0.09 0.06 0.05 0.05 0.05 0.07 0.08 0.08 0.08 0.07 0.07 0.06 0.06 0.06 0.06 0.08 0.08 0.07 0.07 0.05 0.04 0.04 0.04 0.04 0.04 0.04 0.03
0.12 0.12 0.13 0.14 0.14 0.13 0.13 0.14 0.13 0.11 0.10 0.11 0.12 0.11 0.10 0.10 0.09 0.07 0.05 0.04 0.05 0.05 0.05 0.04 0.04 0.03 0.02 0.02 0.02 0.03 0.04 0.04 0.06 0.07 0.07 0.06 0.05 0.05 0.05 0.04 0.05 0.05 0.05
0.13 0.11 0.11 0.12 0.13 0.15 0.15 0.16 0.15 0.14 0.14 0.14 0.13 0.12 0.10 0.09 0.07 0.05 0.03 0.03 0.03 0.04 0.04 0.04 0.03 0.03 0.03 0.03 0.02 0.02 0.02 0.02 0.03 0.04 0.04 0.03 0.03 0.04 0.04 0.03 0.04 0.04 0.04
0.11 0.10 0.09 0.12 0.13 0.13 0.13 0.14 0.15 0.16 0.16 0.16 0.15 0.13 0.12 0.10 0.08 0.06 0.04 0.03 0.03 0.03 0.04 0.04 0.04 0.04 0.03 0.03 0.02 0.02 0.02 0.01 0.01 0.02 0.02 0.02 0.03 0.03 0.03 0.04 0.04 0.04 0.03
0.11 0.11 0.11 0.12 0.13 0.14 0.15 0.15 0.16 0.18 0.19 0.18 0.17 0.14 0.12 0.10 0.07 0.06 0.05 0.04 0.04 0.03 0.03 0.04 0.03 0.03 0.03 0.02 0.01 0.01 0.01 0.01 0.01 0.01 0.01 0.02 0.02 0.02 0.02 0.03 0.03 0.04 0.04
0.08 0.09 0.10 0.10 0.11 0.11 0.13 0.15 0.15 0.16 0.15 0.14 0.14 0.12 0.10 0.09 0.07 0.06 0.06 0.05 0.04 0.03 0.03 0.03 0.02 0.02 0.01 0.01 0.01 0.01 0.01 0.01 0.01 0.01 0.01 0.01 0.01 0.01 0.02 0.01 0.02 0.02 0.03
0.05 0.06 0.08 0.09 0.10 0.11 0.11 0.12 0.13 0.14 0.15 0.15 0.14 0.12 0.11 0.11 0.10 0.08 0.05 0.04 0.04 0.03 0.02 0.01 0.01 0.01 0.01 0.01 0.01 0.01 0.01 0.01 0.02 0.01 0.01 0.01 0.02 0.02 0.02 0.02 0.02 0.02 0.02
0.02 0.03 0.04 0.04 0.05 0.06 0.07 0.09 0.11 0.11 0.13 0.13 0.12 0.12 0.11 0.12 0.11 0.10 0.09 0.06 0.04 0.03 0.01 0.01 0.01 0.01 0.01 0.01 0.01 0.01 0.02 0.02 0.03 0.03 0.03 0.03 0.03 0.03 0.02 0.02 0.01 0.02 0.02
0.01 0.01 0.01 0.01 0.01 0.02 0.03 0.05 0.07 0.08 0.09 0.09 0.10 0.11 0.11 0.12 0.12 0.11 0.10 0.08 0.07 0.05 0.03 0.02 0.02 0.02 0.02 0.02 0.02 0.02 0.02 0.02 0.02 0.03 0.03 0.04 0.04 0.04 0.04 0.04 0.03 0.03 0.03
0.01 0.01 0.01 0.01 0.01 0.01 0.01 0.02 0.03 0.04 0.04 0.05 0.05 0.05 0.06 0.06 0.07 0.08 0.08 0.08 0.08 0.07 0.06 0.06 0.06 0.05 0.04 0.04 0.03 0.03 0.03 0.03 0.04 0.04 0.05 0.06 0.07 0.06 0.06 0.06 0.06 0.06 0.06
0.00 0.00 0.00 0.00 0.00 0.00 0.01 0.02 0.02 0.02 0.02 0.02 0.02 0.03 0.04 0.04 0.04 0.04 0.05 0.05 0.05 0.05 0.05 0.04 0.03 0.03 0.03 0.03 0.03 0.03 0.03 0.03 0.04 0.05 0.05 0.06 0.05 0.06 0.06 0.05 0.05 0.05 0.06
0.00 0.00 0.01 0.01 0.01 0.01 0.01 0.02 0.02 0.02 0.02 0.03 0.03 0.03 0.03 0.03 0.03 0.03 0.03 0.03 0.02 0.02 0.01 0.01 0.01 0.02 0.02 0.02 0.03 0.03 0.03 0.04 0.04 0.05 0.05 0.05 0.05 0.06 0.06 0.05 0.05 0.05 0.04
0.00 0.00 0.00 0.00 0.01 0.01 0.01 0.02 0.02 0.02 0.02 0.03 0.03 0.03 0.03 0.02 0.02 0.02 0.01 0.01 0.01 0.01 0.01 0.01 0.01 0.01 0.02 0.03 0.03 0.04 0.04 0.05 0.06 0.06 0.07 0.06 0.07 0.07 0.06 0.05 0.05 0.04 0.04
0.00 0.00 0.00 0.00 0.00 0.00 0.00 0.00 0.00 0.01 0.01 0.01 0.01 0.01 0.01 0.01 0.01 0.01 0.01 0.00 0.00 0.00 0.01 0.01 0.01 0.01 0.02 0.03 0.03 0.04 0.04 0.04 0.04 0.04 0.04 0.05 0.06 0.06 0.06 0.06 0.06 0.07 0.06
0.00 0.00 0.00 0.00 0.00 0.00 0.00 0.00 0.00 0.00 0.00 0.00 0.00 0.01 0.01 0.01 0.01 0.01 0.01 0.01 0.00 0.00 0.01 0.01 0.01 0.01 0.02 0.02 0.02 0.03 0.04 0.04 0.03 0.03 0.03 0.04 0.05 0.06 0.07 0.07 0.06 0.06 0.05
0.00 0.00 0.00 0.00 0.00 0.00 0.00 0.00 0.00 0.00 0.00 0.00 0.00 0.00 0.01 0.01 0.01 0.02 0.02 0.01 0.01 0.01 0.01 0.01 0.02 0.02 0.02 0.02 0.02 0.02 0.03 0.03 0.02 0.02 0.03 0.03 0.03 0.04 0.04 0.04 0.04 0.04 0.04
0.00 0.00 0.00 0.00 0.00 0.00 0.00 0.00 0.00 0.00 0.00 0.00 0.00 0.01 0.01 0.01 0.02 0.02 0.02 0.02 0.01 0.01 0.01 0.02 0.02 0.02 0.02 0.01 0.02 0.02 0.03 0.02 0.02 0.02 0.02 0.02 0.02 0.02 0.03 0.03 0.03 0.03 0.04
0.00 0.00 0.00 0.00 0.00 0.00 0.00 0.00 0.00 0.00 0.01 0.01 0.01 0.02 0.02 0.02 0.02 0.02 0.01 0.01 0.01 0.01 0.01 0.01 0.01 0.01 0.02 0.02 0.02 0.02 0.01 0.01 0.01 0.02 0.01 0.01 0.02 0.02 0.03 0.03 0.03 0.03 0.03
MSLP
1006.61 1007.19 1007.84 1008.54 1009.21 1009.82 1010.35 1010.79 1011.17 1011.52 1011.86 1012.23 1012.65 1013.12 1013.63 1014.15 1014.65 1015.09 1015.46 1015.74 1015.94 1016.06 1016.14 1016.19 1016.25 1016.33 1016.44 1016.59 1016.76 1016.94 1017.11 1017.25 1017.34 1017.38 1017.36 1017.30 1017.21 1017.10 1017.01 1016.93 1016.89 1016.88 1016.91
1006.83 1007.36 1007.98 1008.65 1009.32 1009.94 1010.48 1010.94 1011.34 1011.67 1011.99 1012.32 1012.68 1013.08 1013.51 1013.96 1014.40 1014.80 1015.14 1015.41 1015.60 1015.72 1015.80 1015.85 1015.90 1015.97 1016.08 1016.23 1016.41 1016.61 1016.81 1016.98 1017.11 1017.18 1017.18 1017.13 1017.03 1016.90 1016.77 1016.64 1016.53 1016.46 1016.40
1007.24 1007.75 1008.34 1008.98 1009.62 1010.22 1010.75 1011.20 1011.57 1011.89 1012.16 1012.43 1012.72 1013.03 1013.38 1013.74 1014.11 1014.45 1014.75 1015.00 1015.18 1015.31 1015.40 1015.46 1015.52 1015.60 1015.72 1015.87 1016.07 1016.28 1016.50 1016.69 1016.85 1016.94 1016.97 1016.93 1016.84 1016.70 1016.54 1016.38 1016.23 1016.10 1015.99
1007.75 1008.26 1008.83 1009.42 1010.02 1010.57 1011.06 1011.47 1011.80 1012.07 1012.30 1012.50 1012.71 1012.94 1013.19 1013.47 1013.75 1014.03 1014.29 1014.51 1014.68 1014.82 1014.92 1015.00 1015.09 1015.19 1015.33 1015.50 1015.71 1015.93 1016.16 1016.37 1016.54 1016.65 1016.70 1016.67 1016.59 1016.46 1016.31 1016.14 1015.97 1015.80 1015.65
1008.22 1008.76 1009.31 1009.86 1010.39 1010.88 1011.31 1011.66 1011.94 1012.16 1012.33 1012.48 1012.62 1012.77 1012.94 1013.14 1013.35 1013.56 1013.77 1013.96 1014.12 1014.26 1014.38 1014.49 1014.61 1014.75 1014.91 1015.10 1015.33 1015.56 1015.79 1016.01 1016.18 1016.30 1016.35 1016.34 1016.28 1016.17 1016.03 1015.87 1015.70 1015.54 1015.36
1008.58 1009.15 1009.68 1010.19 1010.66 1011.07 1011.42 1011.71 1011.93 1012.10 1012.23 1012.33 1012.42 1012.52 1012.64 1012.77 1012.91 1013.07 1013.24 1013.40 1013.55 1013.70 1013.84 1013.98 1014.13 1014.30 1014.49 1014.71 1014.94 1015.18 1015.40 1015.61 1015.77 1015.89 1015.94 1015.94 1015.89 1015.80 1015.69 1015.55 1015.41 1015.25 1015.08
1008.80 1009.39 1009.91 1010.37 1010.76 1011.09 1011.37 1011.59 1011.76 1011.90 1012.00 1012.08 1012.16 1012.23 1012.32 1012.41 1012.52 1012.64 1012.77 1012.91 1013.06 1013.21 1013.36 1013.53 1013.71 1013.91 1014.12 1014.35 1014.59 1014.82 1015.03 1015.21 1015.36 1015.45 1015.49 1015.49 1015.44 1015.37 1015.27 1015.16 1015.04 1014.90 1014.74
1008.91 1009.50 1010.00 1010.40 1010.72 1010.97 1011.18 1011.34 1011.47 1011.59 1011.69 1011.78 1011.87 1011.96 1012.05 1012.14 1012.24 1012.34 1012.46 1012.59 1012.73 1012.88 1013.05 1013.23 1013.43 1013.64 1013.87 1014.10 1014.32 1014.53 1014.71 1014.86 1014.97 1015.03 1015.05 1015.02 1014.96 1014.89 1014.80 1014.70 1014.59 1014.47 1014.32
1008.99 1009.57 1010.02 1010.36 1010.61 1010.78 1010.92 1011.04 1011.15 1011.27 1011.39 1011.51 1011.64 1011.77 1011.89 1012.01 1012.13 1012.24 1012.36 1012.48 1012.62 1012.77 1012.94 1013.13 1013.33 1013.54 1013.76 1013.97 1014.17 1014.35 1014.49 1014.59 1014.65 1014.66 1014.63 1014.57 1014.49 1014.39 1014.28 1014.18 1014.06 1013.94 1013.79
1009.15 1009.69 1010.08 1010.35 1010.52 1010.63 1010.71 1010.79 1010.89 1011.01 1011.16 1011.33 1011.52 1011.70 1011.88 1012.05 1012.21 1012.35 1012.48 1012.62 1012.75 1012.90 1013.06 1013.24 1013.42 1013.61 1013.80 1013.98 1014.14 1014.26 1014.35 1014.40 1014.40 1014.36 1014.27 1014.16 1014.04 1013.90 1013.76 1013.62 1013.48 1013.33 1013.16
1009.47 1009.94 1010.26 1010.45 1010.54 1010.58 1010.62 1010.66 1010.75 1010.89 1011.07 1011.30 1011.54 1011.79 1012.03 1012.26 1012.46 1012.64 1012.79 1012.94 1013.08 1013.21 1013.35 1013.50 1013.65 1013.80 1013.94 1014.07 1014.17 1014.24 1014.27 1014.25 1014.20 1014.10 1013.96 1013.80 1013.62 1013.43 1013.25 1013.06 1012.88 1012.69 1012.48
1009.97 1010.35 1010.59 1010.70 1010.72 1010.70 1010.68 1010.70 1010.78 1010.93 1011.14 1011.40 1011.69 1011.99 1012.29 1012.57 1012.81 1013.02 1013.20 1013.36 1013.49 1013.61 1013.72 1013.83 1013.93 1014.02 1014.10 1014.16 1014.20 1014.20 1014.17 1014.10 1013.99 1013.84 1013.67 1013.46 1013.24 1013.01 1012.77 1012.53 1012.29 1012.05 1011.80
1010.62 1010.91 1011.05 1011.08 1011.03 1010.96 1010.91 1010.90 1010.96 1011.10 1011.32 1011.60 1011.92 1012.26 1012.59 1012.90 1013.17 1013.41 1013.60 1013.75 1013.87 1013.96 1014.04 1014.09 1014.13 1014.16 1014.16 1014.16 1014.13 1014.07 1013.99 1013.88 1013.73 1013.56 1013.36 1013.13 1012.89 1012.62 1012.35 1012.07 1011.78 1011.49 1011.19
1011.34 1011.52 1011.58 1011.54 1011.44 1011.32 1011.23 1011.20 1011.25 1011.37 1011.58 1011.86 1012.18 1012.52 1012.86 1013.17 1013.45 1013.69 1013.88 1014.02 1014.11 1014.17 1014.20 1014.20 1014.17 1014.13 1014.07 1013.99 1013.90 1013.80 1013.69 1013.55 1013.40 1013.23 1013.03 1012.81 1012.57 1012.30 1012.02 1011.71 1011.38 1011.05 1010.70
1012.01 1012.10 1012.08 1011.98 1011.85 1011.71 1011.60 1011.55 1011.57 1011.68 1011.86 1012.11 1012.41 1012.72 1013.04 1013.33 1013.59 1013.81 1013.98 1014.09 1014.15 1014.17 1014.15 1014.10 1014.01 1013.91 1013.79 1013.66 1013.53 1013.40 1013.27 1013.14 1013.00 1012.86 1012.70 1012.51 1012.30 1012.06 1011.78 1011.47 1011.14 1010.77 1010.39
1012.54 1012.54 1012.47 1012.35 1012.20 1012.05 1011.94 1011.89 1011.90 1011.99 1012.14 1012.36 1012.60 1012.87 1013.14 1013.39 1013.60 1013.78 1013.90 1013.98 1014.01 1013.98 1013.92 1013.82 1013.69 1013.54 1013.38 1013.22 1013.07 1012.93 1012.81 1012.70 1012.61 1012.51 1012.40 1012.28 1012.12 1011.92 1011.68 1011.39 1011.06 1010.68 1010.27
1012.89 1012.83 1012.73 1012.60 1012.46 1012.34 1012.25 1012.22 1012.23 1012.31 1012.44 1012.61 1012.80 1013.01 1013.21 1013.39 1013.55 1013.66 1013.74 1013.77 1013.75 1013.70 1013.60 1013.46 1013.31 1013.13 1012.96 1012.79 1012.64 1012.51 1012.42 1012.34 1012.29 1012.25 1012.21 1012.14 1012.05 1011.90 1011.70 1011.44 1011.12 1010.74 1010.32
1013.08 1012.99 1012.88 1012.77 1012.67 1012.60 1012.56 1012.56 1012.61 1012.69 1012.80 1012.93 1013.07 1013.21 1013.34 1013.45 1013.54 1013.59 1013.61 1013.59 1013.54 1013.45 1013.32 1013.18 1013.01 1012.84 1012.66 1012.50 1012.37 1012.26 1012.19 1012.16 1012.15 1012.15 1012.16 1012.14 1012.09 1011.99 1011.82 1011.59 1011.28 1010.90 1010.46
1013.20 1013.10 1013.02 1012.95 1012.92 1012.91 1012.94 1013.01 1013.09 1013.19 1013.30 1013.41 1013.50 1013.58 1013.64 1013.68 1013.69 1013.67 1013.63 1013.57 1013.48 1013.37 1013.24 1013.09 1012.93 1012.77 1012.61 1012.47 1012.35 1012.27 1012.22 1012.21 1012.22 1012.24 1012.26 1012.27 1012.24 1012.15 1012.00 1011.77 1011.46 1011.07 1010.62
1013.39 1013.30 1013.25 1013.25 1013.29 1013.37 1013.48 1013.62 1013.76 1013.89 1014.01 1014.10 1014.16 1014.18 1014.18 1014.14 1014.08 1014.00 1013.91 1013.80 1013.68 1013.55 1013.42 1013.28 1013.13 1012.99 1012.86 1012.74 1012.64 1012.57 1012.52 1012.50 1012.50 1012.51 1012.51 1012.49 1012.44 1012.33 1012.16 1011.91 1011.58 1011.18 1010.70
1013.77 1013.70 1013.70 1013.77 1013.89 1014.05 1014.24 1014.45 1014.64 1014.81 1014.94 1015.02 1015.05 1015.03 1014.97 1014.87 1014.75 1014.61 1014.46 1014.31 1014.17 1014.03 1013.89 1013.76 1013.63 1013.51 1013.39 1013.28 1013.19 1013.11 1013.04 1012.98 1012.93 1012.89 1012.83 1012.75 1012.63 1012.46 1012.24 1011.94 1011.58 1011.15 1010.65
1014.43 1014.39 1014.44 1014.56 1014.74 1014.98 1015.23 1015.49 1015.73 1015.92 1016.06 1016.14 1016.14 1016.08 1015.97 1015.81 1015.63 1015.44 1015.25 1015.06 1014.89 1014.74 1014.60 1014.47 1014.35 1014.24 1014.13 1014.02 1013.91 1013.79 1013.68 1013.56 1013.43 1013.30 1013.14 1012.96 1012.75 1012.49 1012.19 1011.84 1011.43 1010.96 1010.44
1015.39 1015.39 1015.47 1015.62 1015.85 1016.12 1016.41 1016.70 1016.95 1017.15 1017.28 1017.34 1017.31 1017.22 1017.06 1016.86 1016.64 1016.40 1016.17 1015.95 1015.75 1015.58 1015.43 1015.30 1015.18 1015.06 1014.94 1014.81 1014.67 1014.51 1014.33 1014.12 1013.90 1013.65 1013.38 1013.09 1012.76 1012.41 1012.02 1011.60 1011.14 1010.64 1010.11
1016.60 1016.62 1016.71 1016.88 1017.11 1017.38 1017.67 1017.94 1018.18 1018.36 1018.47 1018.50 1018.45 1018.32 1018.13 1017.90 1017.64 1017.37 1017.10 1016.85 1016.63 1016.44 1016.27 1016.12 1015.98 1015.84 1015.70 1015.54 1015.35 1015.13 1014.88 1014.59 1014.27 1013.91 1013.53 1013.12 1012.69 1012.23 1011.77 1011.29 1010.79 1010.27 1009.74
1017.94 1017.95 1018.04 1018.19 1018.39 1018.62 1018.87 1019.10 1019.29 1019.43 1019.50 1019.50 1019.42 1019.26 1019.06 1018.80 1018.52 1018.23 1017.95 1017.68 1017.43 1017.21 1017.02 1016.84 1016.68 1016.51 1016.33 1016.13 1015.90 1015.62 1015.30 1014.94 1014.53 1014.08 1013.60 1013.10 1012.58 1012.05 1011.52 1010.99 1010.47 1009.96 1009.44
1019.25 1019.25 1019.31 1019.41 1019.55 1019.72 1019.89 1020.05 1020.18 1020.26 1020.29 1020.26 1020.15 1019.99 1019.78 1019.53 1019.25 1018.96 1018.67 1018.38 1018.12 1017.88 1017.66 1017.45 1017.25 1017.05 1016.83 1016.58 1016.30 1015.98 1015.61 1015.18 1014.72 1014.20 1013.66 1013.09 1012.51 1011.94 1011.37 1010.82 1010.29 1009.78 1009.29
Thickness
5751 5750 5749 5747 5747 5746 5745 5746 5746 5745 5745 5744 5743 5742 5741 5740 5739 5737 5736 5736 5734 5733 5734 5733 5732 5732 5732 5732 5732 5731 5730 5727 5721 5724 5728 5730 5728 5726 5723 5722 5720 5718 5717
5752 5750 5748 5747 5745 5744 5744 5744 5744 5743 5742 5742 5741 5740 5738 5738 5736 5734 5732 5733 5731 5729 5730 5730 5729 5729 5727 5726 5726 5725 5725 5724 5720 5716 5719 5721 5721 5720 5719 5716 5716 5715 5715
5752 5749 5746 5744 5743 5742 5742 5742 5742 5740 5739 5739 5738 5737 5736 5735 5734 5733 5731 5730 5729 5728 5728 5726 5726 5725 5722 5721 5720 5719 5719 5720 5718 5714 5712 5714 5714 5715 5713 5711 5711 5709 5709
5752 5748 5744 5743 5741 5741 5740 5740 5739 5738 5736 5735 5735 5734 5733 5732 5731 5730 5729 5727 5726 5725 5725 5724 5723 5721 5719 5717 5715 5714 5713 5712 5711 5708 5706 5706 5706 5708 5706 5702 5701 5702 5702
5750 5747 5744 5743 5741 5740 5739 5737 5736 5735 5734 5733 5731 5730 5729 5728 5727 5726 5725 5724 5722 5721 5721 5720 5719 5718 5716 5713 5711 5709 5707 5704 5702 5699 5697 5697 5696 5695 5694 5694 5692 5693 5695
5748 5745 5744 5742 5740 5738 5736 5735 5733 5731 5731 5729 5728 5727 5725 5725 5724 5722 5721 5721 5719 5717 5716 5715 5714 5713 5711 5708 5705 5703 5700 5697 5694 5691 5690 5688 5687 5687 5686 5685 5682 5680 5679
5746 5744 5742 5740 5738 5736 5735 5732 5730 5728 5727 5726 5724 5723 5721 5719 5719 5717 5716 5715 5715 5713 5711 5709 5708 5708 5705 5701 5698 5696 5693 5690 5687 5683 5681 5680 5679 5679 5676 5674 5673 5670 5669
5744 5742 5740 5738 5735 5734 5731 5729 5727 5726 5724 5722 5720 5719 5717 5715 5713 5712 5711 5710 5709 5708 5706 5704 5700 5697 5696 5693 5691 5688 5686 5684 5680 5677 5676 5675 5673 5671 5668 5665 5663 5662 5663
5740 5738 5736 5734 5732 5730 5727 5726 5724 5722 5720 5718 5716 5714 5712 5710 5707 5705 5704 5704 5702 5700 5699 5696 5693 5689 5687 5684 5682 5679 5677 5675 5674 5671 5669 5667 5664 5662 5658 5654 5652 5649 5649
5735 5733 5732 5730 5727 5724 5722 5721 5720 5717 5715 5713 5710 5709 5707 5704 5700 5697 5695 5696 5693 5692 5690 5687 5684 5681 5678 5675 5672 5670 5666 5665 5663 5661 5658 5656 5655 5653 5650 5646 5643 5639 5637
5728 5727 5725 5723 5721 5719 5717 5715 5713 5710 5708 5706 5704 5702 5699 5696 5692 5688 5686 5686 5684 5681 5680 5677 5674 5671 5668 5665 5662 5660 5657 5653 5652 5650 5649 5647 5645 5643 5641 5638 5635 5631 5627
5718 5716 5714 5713 5713 5711 5708 5706 5704 5702 5699 5697 5694 5692 5690 5686 5683 5679 5676 5673 5672 5670 5668 5667 5664 5660 5658 5654 5651 5648 5645 5641 5639 5638 5636 5634 5633 5631 5630 5628 5625 5621 5619
5705 5703 5702 5701 5699 5699 5697 5695 5693 5691 5689 5686 5684 5681 5678 5675 5671 5668 5664 5662 5659 5657 5656 5653 5651 5648 5645 5643 5639 5635 5631 5629 5627 5624 5622 5621 5620 5619 5617 5615 5613 5610 5608
5690 5689 5688 5687 5684 5683 5682 5680 5677 5676 5674 5673 5670 5667 5664 5661 5656 5653 5652 5650 5647 5644 5642 5640 5638 5636 5633 5630 5627 5624 5620 5618 5615 5612 5610 5608 5606 5604 5602 5600 5598 5596 5594
5678 5677 5676 5674 5672 5670 5667 5663 5661 5657 5657 5656 5653 5651 5647 5644 5638 5635 5636 5635 5633 5631 5628 5628 5627 5625 5622 5619 5616 5613 5610 5606 5602 5599 5596 5593 5591 5589 5587 5585 5583 5581 5578
5669 5668 5667 5666 5664 5661 5657 5650 5644 5643 5641 5640 5637 5635 5631 5628 5626 5624 5621 5620 5619 5617 5615 5615 5613 5611 5608 5605 5602 5598 5595 5591 5588 5585 5582 5578 5575 5573 5572 5570 5568 5565 5563
5659 5657 5657 5656 5655 5652 5649 5645 5638 5632 5628 5626 5624 5621 5619 5616 5614 5612 5610 5608 5606 5603 5600 5599 5598 5596 5593 5590 5586 5583 5579 5576 5573 5570 5567 5564 5561 5558 5556 5555 5553 5551 5550
5650 5648 5647 5646 5645 5643 5641 5638 5634 5630 5624 5618 5613 5609 5606 5603 5601 5598 5596 5594 5594 5590 5587 5585 5582 5579 5576 5573 5570 5567 5563 5560 5558 5554 5552 5549 5546 5544 5542 5540 5539 5537 5536
5640 5638 5636 5636 5635 5633 5631 5628 5624 5620 5615 5610 5604 5598 5594 5591 5588 5584 5580 5579 5578 5576 5572 5569 5566 5563 5560 5557 5554 5551 5548 5545 5542 5539 5537 5535 5532 5530 5528 5527 5525 5524 5522
5627 5625 5625 5625 5624 5622 5619 5616 5612 5608 5603 5598 5592 5586 5583 5580 5576 5572 5567 5564 5561 5558 5555 5552 5549 5547 5545 5542 5539 5536 5533 5531 5528 5525 5522 5520 5519 5516 5515 5513 5512 5511 5511
5619 5617 5615 5615 5612 5608 5605 5602 5598 5594 5589 5584 5577 5571 5565 5565 5562 5557 5553 5549 5545 5542 5539 5536 5534 5532 5530 5527 5524 5522 5519 5516 5513 5510 5507 5506 5505 5503 5502 5501 5501 5501 5501
5608 5607 5605 5602 5598 5593 5590 5588 5584 5580 5575 5570 5564 5559 5553 5551 5547 5543 5538 5535 5532 5528 5525 5522 5520 5517 5514 5511 5509 5507 5505 5502 5499 5496 5494 5493 5492 5492 5492 5492 5492 5493 5493
5597 5595 5592 5588 5584 5580 5577 5573 5569 5564 5559 5555 5551 5546 5542 5537 5533 5529 5525 5521 5518 5515 5512 5509 5507 5504 5501 5498 5496 5494 5492 5488 5484 5483 5482 5482 5482 5483 5483 5484 5485 5485 5486
5584 5582 5578 5574 5570 5566 5562 5558 5554 5549 5545 5540 5536 5531 5526 5522 5519 5514 5511 5507 5505 5502 5499 5497 5495 5492 5490 5487 5485 5483 5479 5476 5474 5474 5473 5474 5475 5476 5478 5479 5480 5480 5480
5571 5568 5564 5560 5556 5553 5548 5544 5539 5535 5531 5526 5521 5516 5512 5508 5504 5500 5497 5495 5492 5491 5488 5486 5483 5481 5479 5477 5475 5473 5470 5469 5468 5467 5467 5468 5470 5471 5473 5474 5475 5476 5477
5557 5554 5550 5547 5542 5538 5534 5529 5525 5521 5517 5513 5508 5504 5500 5496 5492 5488 5485 5483 5482 5480 5478 5476 5474 5472 5469 5467 5465 5465 5464 5464 5464 5463 5463 5464 5466 5468 5469 5470 5472 5473 5474